World > North America > United States > Ohio > Worthington   City of Worthington, OH

Worthington, OH Hourly Weather Updates

Feedback E-mail the Weather

Quick WX

Worthington, OH Weather Maps

°F °C°F °C
Worthington Weather Map
UTC Time: 2/26/2024, 07:47
Your Time:

Worthington, OH Regional Weather

Expires:202402260800;;714016
ASUS41 KCLE 260712
RWRCLE
OHIO REGIONAL WEATHER ROUNDUP
NATIONAL WEATHER SERVICE WILMINGTON, OH
200 AM EST MON FEB 26 2024

NOTE: "FAIR" INDICATES FEW OR NO CLOUDS BELOW 12,000 FEET WITH NO
SIGNIFICANT WEATHER AND/OR OBSTRUCTIONS TO VISIBILITY.


OHZ036-037-039>041-045>050-054>059-063>069-073>076-082>088-260800-
  CENTRAL AND SOUTHEAST OHIO
  
CITY           SKY/WX    TMP DP  RH WIND       PRES   REMARKS
COLUMBUS       FAIR      35  28  75 NE3       29.91S                  
OSU AIRPORT    FAIR      40  28  62 CALM      29.91R                  
BOLTON FIELD   FAIR      36  28  72 S3        29.91S                  
RICKENBACK AFB FAIR      41  27  58 CALM      29.92R                  
NEWARK         NOT AVBL                                               
MARION         FAIR      35  28  75 S8        29.88F WCI  29          
LANCASTER      FAIR      35  27  72 S3        29.92S                  
ZANESVILLE     FAIR      33  26  75 CALM      29.92S                  
NEW PHILLY     MOCLDY    33  27  78 E3        29.92R                  
$$
  

SKY/WX - Weather  TMP - Temperature  DP - Dew Point  RH - Humidity
WIND - Wind Direction/Speed PRES - Barometric Pressure VSB - Visibility
WCI - Wind Chill Index E13G22 Wind - East Wind 13 mph/Gusts of 22 mph

Trending Headlines

Trending Entertainment Headlines

Worthington Radar Loop

Use the map search tool if you want to place a location marker on the radar map...

Worthington Quick Facts

National Two Day Weather Forecast


E-mail the Worthington Weather Forecast

Voice your opinion or tell us about page issues...